Theta_e
306 300 298 297 300 301 303 303 302 303 303 301 298 296 295 295 294 297 298 296 298 294 294 295 296 296 296 298 299 299 299 297 296 295 296 296 295 298 301 302 303 306 310 315 315 318 322 323 324 325 325 324 324 325 325 324 323 322 321 320 319 320 321 322 321 320 320 320 319 320 321 321 321 321 322 322 323 323 323 323 323 323 323 324 323 323
306 299 298 302 303 303 303 304 303 304 304 300 297 296 295 295 295 297 298 296 295 296 292 292 292 293 295 296 296 296 294 296 298 298 296 296 296 296 299 302 303 306 308 310 312 314 317 321 322 323 324 322 322 323 324 324 324 324 322 321 321 321 321 322 322 321 321 322 322 321 321 322 322 321 320 322 322 323 323 322 323 323 323 323 323 322
299 297 301 304 305 305 304 304 305 303 300 299 298 296 294 294 293 293 291 294 294 295 292 289 290 293 295 296 298 296 297 299 299 299 301 299 298 297 298 301 303 304 306 308 311 313 315 318 321 322 323 323 324 324 324 325 324 324 323 323 322 322 321 321 322 322 321 322 323 323 322 322 321 322 322 323 322 322 322 323 323 323 323 324 324 323
294 298 303 305 305 303 303 304 303 301 300 298 296 294 293 294 293 289 290 291 294 294 290 289 288 291 293 294 295 297 298 299 300 300 300 300 300 299 299 300 302 304 306 307 308 311 314 316 320 320 321 322 323 323 323 324 324 325 324 324 323 322 322 322 322 320 322 322 323 323 321 321 322 321 320 321 319 320 321 322 323 322 323 323 324 323
297 302 306 305 304 303 301 302 302 300 297 296 298 294 294 291 294 290 289 289 289 291 291 290 290 292 293 295 297 298 297 298 300 300 299 300 301 302 302 301 302 304 306 307 308 309 312 314 317 320 321 322 322 323 323 324 324 326 325 325 325 324 323 323 321 321 322 321 318 319 317 318 318 319 318 320 321 321 321 321 322 323 322 322 323 324
298 304 306 303 302 302 301 300 301 300 296 296 296 297 296 295 294 288 289 290 286 287 289 291 284 284 285 288 291 296 293 296 296 296 299 300 301 300 299 299 300 304 306 308 308 309 311 314 316 319 321 321 322 322 324 325 325 325 326 325 325 325 324 324 323 322 322 321 321 320 319 318 319 319 320 320 321 321 321 321 323 322 323 323 323 324
300 304 304 301 300 300 300 299 301 302 297 294 295 299 296 293 292 289 288 289 283 284 289 290 287 284 287 292 292 291 290 293 294 295 298 300 300 299 299 300 300 300 303 305 307 309 309 313 315 317 319 321 321 323 324 324 325 325 326 326 326 326 325 325 325 323 322 322 322 321 321 320 320 319 320 322 323 323 323 323 322 323 323 324 324 323
301 301 302 301 300 298 298 297 300 302 297 293 295 299 295 291 290 290 291 288 283 285 290 285 287 282 284 291 294 295 292 294 295 295 296 298 299 300 300 300 300 300 301 304 305 306 308 311 314 315 318 320 321 323 323 323 324 324 324 325 325 326 324 326 326 324 323 323 323 322 322 321 321 321 321 322 323 322 321 322 323 323 323 323 325 325
302 299 300 298 298 297 297 299 301 302 298 296 298 300 296 293 291 291 291 286 286 287 285 283 287 285 283 286 289 290 292 295 296 297 298 298 298 299 300 301 300 300 300 301 303 304 306 308 313 315 316 319 321 321 321 322 323 324 324 324 324 325 324 324 325 325 324 324 324 324 323 322 322 323 323 318 317 319 318 321 321 322 323 323 324 325
302 302 301 301 299 297 297 298 301 302 298 297 299 300 298 296 295 293 288 290 288 287 284 284 285 281 288 286 292 291 290 292 294 297 299 299 299 299 300 300 300 299 298 299 301 302 304 307 311 314 316 317 319 321 321 321 322 322 323 322 322 324 325 324 324 324 325 324 323 324 323 322 323 321 321 317 320 318 318 320 321 321 322 323 323 323
298 304 305 302 299 299 298 299 301 303 300 300 301 298 295 292 289 287 287 286 287 285 285 286 285 285 285 286 291 291 292 296 297 296 298 298 297 298 299 299 300 299 299 299 300 300 302 305 309 312 314 316 317 316 316 318 319 320 321 322 321 323 324 323 323 323 324 324 324 324 324 323 322 322 321 320 320 319 318 320 320 321 321 321 322 322
300 301 302 300 304 300 302 296 298 302 301 300 293 293 295 290 289 289 286 287 286 286 287 287 288 289 283 284 284 291 292 290 293 294 296 296 296 297 297 299 299 299 299 299 299 300 300 300 304 305 310 312 313 313 315 316 316 317 319 320 320 321 321 323 323 322 323 323 324 324 324 323 323 322 321 321 320 320 320 320 320 319 320 322 323 322
295 297 297 297 301 304 298 298 295 298 298 298 296 296 292 286 287 286 287 285 285 285 288 287 289 285 289 294 291 291 292 295 294 294 295 295 297 296 295 296 298 298 298 298 298 299 299 300 301 303 307 309 310 313 315 316 317 317 318 318 319 320 320 322 322 322 322 322 323 323 323 323 323 322 322 321 320 320 320 320 319 318 321 323 323 324
291 296 294 297 298 302 302 295 290 291 295 297 295 293 289 284 284 283 284 285 285 286 287 287 286 286 285 291 296 298 301 302 299 297 296 297 298 298 296 295 295 296 298 299 299 299 299 300 300 302 305 308 310 311 314 315 315 316 317 317 317 319 319 319 319 321 321 322 323 323 323 323 322 321 321 321 321 320 320 320 319 320 321 321 322 323
286 287 293 296 294 301 301 301 298 297 297 297 297 297 291 289 285 283 285 283 284 283 283 284 284 281 283 288 289 294 297 298 297 295 293 294 295 295 292 291 292 292 294 296 297 298 299 300 300 301 302 304 307 309 311 313 314 315 316 316 316 317 316 317 318 319 320 322 322 322 322 322 322 321 320 321 321 320 318 318 319 319 319 320 320 320
291 290 295 300 294 301 299 298 297 296 294 292 294 295 289 290 288 285 283 283 277 277 277 278 285 282 289 290 293 294 292 293 293 292 290 291 291 290 292 293 292 292 293 293 294 296 296 297 296 296 297 299 301 304 308 310 312 313 315 315 316 317 317 316 316 318 320 321 321 320 320 320 319 317 319 318 317 319 319 319 318 319 319 320 320 319
292 289 296 299 296 300 300 297 297 301 289 293 296 292 294 294 289 283 281 281 279 276 280 276 282 285 286 294 299 300 295 293 290 290 289 290 289 291 292 292 291 292 291 291 293 294 295 293 293 296 297 298 299 300 304 308 310 312 313 313 314 314 312 313 314 317 318 317 315 316 318 318 318 318 319 320 319 318 317 318 318 319 319 318 318 318
290 288 293 298 291 299 297 300 298 300 296 293 290 294 294 294 292 288 281 277 277 275 275 279 283 282 281 285 288 287 290 293 290 292 290 289 288 290 293 293 293 293 292 291 291 291 291 292 294 295 295 296 298 298 299 302 301 304 306 309 311 309 310 310 310 311 309 311 312 313 315 317 318 320 319 319 318 317 316 316 316 315 315 315 316 317
295 285 289 291 294 293 296 299 295 296 295 298 295 298 296 287 288 287 283 275 275 274 271 276 277 280 284 287 288 291 288 290 288 288 290 290 289 290 291 292 291 290 290 292 293 293 294 294 294 295 296 296 294 295 294 294 294 295 296 298 304 307 307 306 304 303 305 309 314 315 315 316 316 316 317 316 316 315 316 315 314 314 316 313 311 312
297 287 288 291 292 292 295 297 289 293 293 294 297 297 292 289 290 287 288 282 281 276 272 273 277 279 284 287 291 293 295 294 294 290 290 291 292 292 293 292 291 290 291 293 294 295 295 295 295 295 295 293 294 294 294 293 293 295 297 297 299 299 299 300 302 302 306 307 309 308 306 308 311 312 314 312 312 312 313 313 312 312 307 311 307 310
290 291 285 288 290 293 290 294 293 294 290 291 293 291 290 288 288 288 286 283 282 271 273 268 273 277 282 288 293 295 296 297 295 295 293 292 292 292 292 292 292 291 292 293 294 295 295 295 294 292 291 293 291 292 292 293 295 295 294 295 295 298 296 297 299 299 302 299 301 302 305 305 305 305 305 306 305 306 305 305 303 306 307 303 306 308
287 289 287 288 288 290 293 296 295 297 296 295 294 291 294 287 287 286 284 286 277 277 274 270 279 275 286 290 295 296 296 295 292 293 293 292 292 291 291 290 290 290 292 293 293 292 293 292 291 291 290 289 292 293 294 293 293 294 295 294 295 295 295 296 296 298 298 297 300 302 302 303 302 303 303 305 305 306 305 304 303 303 300 302 302 300
290 289 290 287 289 291 293 291 290 296 294 291 293 292 294 289 288 284 282 284 282 285 277 275 274 278 288 287 291 294 295 293 292 291 293 294 292 291 291 289 289 290 292 294 293 292 291 290 291 291 292 291 291 292 290 290 292 293 293 294 293 295 295 294 296 295 295 297 298 299 298 297 298 298 299 301 300 299 299 298 297 297 299 299 298 298
294 288 287 286 288 289 292 292 292 293 296 293 292 290 292 291 292 290 285 282 286 280 282 280 278 277 283 285 288 288 287 286 287 289 293 293 292 290 289 289 291 291 292 291 290 289 289 288 289 291 292 292 291 290 291 292 291 292 291 293 292 294 293 291 292 293 295 295 295 294 294 294 290 295 295 298 296 298 297 298 298 297 300 300 300 303
291 289 290 284 284 285 287 290 290 290 292 290 291 293 295 296 292 284 282 279 282 286 286 283 280 278 287 284 285 285 285 289 289 288 289 292 290 291 292 292 292 292 292 292 291 290 289 288 290 292 292 292 291 289 290 292 293 292 293 291 293 292 292 292 291 294 293 291 291 290 291 288 288 291 292 295 294 296 294 295 295 295 298 298 301 301
289 289 289 283 279 278 278 280 282 286 289 293 294 294 294 294 291 287 287 281 283 280 286 280 284 280 284 287 289 288 285 289 288 288 288 288 291 293 291 292 292 291 293 292 291 290 291 291 289 289 290 292 291 292 292 292 292 292 291 292 290 292 289 290 289 289 288 289 293 291 290 289 289 291 292 293 293 293 292 292 294 295 294 297 302 298
288 292 291 290 287 285 288 289 293 295 292 288 289 292 292 294 294 292 289 284 283 283 284 288 286 285 287 290 288 290 288 288 290 290 290 291 291 289 290 291 291 291 291 291 291 290 289 289 291 291 292 293 292 290 292 292 293 291 291 292 291 291 293 292 291 289 292 288 292 289 290 290 292 292 292 292 293 293 295 296 294 296 298 293 296 297
288 288 290 291 291 292 292 291 294 295 291 291 291 290 293 292 292 290 288 287 289 282 279 285 287 287 288 288 289 290 290 288 287 287 287 287 289 291 292 290 291 290 290 288 288 290 292 293 290 290 291 290 292 291 291 291 291 293 293 294 293 292 293 295 294 293 293 290 290 293 291 294 293 294 294 294 295 295 295 295 295 294 292 292 297 295
290 288 290 291 290 291 292 294 294 294 293 292 292 292 291 292 292 289 290 293 289 286 286 290 289 287 291 291 293 293 291 290 291 291 291 289 288 287 288 290 291 291 291 290 292 292 292 292 292 292 291 291 289 290 290 290 290 289 290 290 293 293 294 296 298 297 296 293 294 294 294 294 295 295 296 295 296 294 294 293 292 290 290 292 291 291
293 288 290 291 289 289 291 292 293 292 292 291 291 292 293 292 292 293 293 294 293 290 292 293 290 290 293 294 296 296 293 291 291 288 287 289 289 289 288 289 291 292 292 293 293 293 293 293 292 292 292 290 290 291 291 291 291 292 293 293 293 294 294 296 298 298 298 297 297 295 295 294 294 295 293 293 293 292 290 289 288 289 289 290 289 289
295 287 292 290 288 286 289 291 292 293 292 289 291 292 292 292 292 293 293 293 293 293 294 293 292 291 296 294 296 296 298 298 292 289 290 289 289 289 289 290 290 291 292 292 292 292 292 291 291 290 291 292 291 291 293 294 293 292 292 293 293 295 296 297 298 298 298 298 297 295 295 295 294 292 292 293 291 289 289 289 288 288 288 288 288 289
295 288 291 289 286 285 287 288 290 291 291 290 290 290 291 290 289 291 290 294 292 291 293 292 290 291 296 295 296 294 296 298 299 299 298 297 296 293 291 291 291 292 292 293 292 292 290 290 290 291 292 293 293 293 293 293 293 291 294 294 293 294 295 297 297 298 297 297 296 296 296 295 293 292 291 290 290 289 288 288 288 288 288 288 288 288
292 288 287 287 285 285 287 288 288 288 287 286 287 290 292 292 293 294 295 295 294 295 291 289 290 297 295 295 296 294 294 295 296 298 299 300 300 296 295 297 298 296 295 294 293 292 291 291 292 293 293 294 295 294 294 295 293 294 295 295 294 293 295 296 297 297 297 296 296 296 295 293 292 292 290 290 289 288 288 288 288 288 288 288 287 287
291 290 288 290 285 285 285 285 287 285 280 282 294 296 295 292 293 291 291 293 295 295 294 297 297 294 292 296 296 295 293 296 297 299 300 301 300 297 295 295 296 297 295 293 292 292 292 291 292 293 294 295 296 296 296 294 296 297 295 293 291 293 294 295 295 296 295 295 296 295 294 292 291 291 290 289 288 288 288 288 289 288 287 287 288 288
290 290 289 288 287 278 284 286 284 279 281 293 297 297 297 297 296 294 294 295 296 296 296 296 297 297 293 294 295 296 296 296 296 297 298 296 297 297 297 295 294 294 294 292 291 291 290 291 292 293 293 293 294 292 291 292 293 290 290 291 292 292 293 294 295 295 294 294 294 293 293 292 291 290 289 288 288 288 288 288 288 287 287 288 288 288
289 290 288 287 286 285 284 284 278 279 288 293 294 296 298 297 296 294 292 295 296 296 296 295 297 298 296 294 293 294 294 294 294 295 298 298 295 297 295 295 295 294 294 293 292 293 293 291 291 293 294 295 293 291 293 294 292 291 290 289 291 290 291 293 294 294 293 293 293 293 292 292 291 290 289 288 288 288 288 287 287 287 287 287 287 286
294 292 290 286 288 282 283 284 284 289 287 288 289 290 293 292 292 291 287 291 296 296 296 296 297 298 298 299 296 290 290 290 292 297 297 293 292 292 295 296 296 296 296 296 294 294 295 294 293 293 294 293 293 293 293 293 291 292 289 289 289 289 291 292 293 292 292 292 293 292 292 292 291 290 289 288 288 288 288 287 287 287 287 287 287 286
296 291 290 288 285 288 284 282 284 284 281 285 292 295 299 297 295 294 290 290 295 297 298 297 297 298 297 298 291 289 290 289 293 296 297 294 295 295 292 294 295 296 296 296 295 294 293 292 292 291 292 291 292 294 294 291 291 291 290 289 288 289 290 290 292 292 292 292 292 292 292 292 291 289 289 288 288 288 288 288 288 287 287 287 287 286
289 293 291 290 286 287 285 282 282 281 285 292 291 292 292 294 295 294 288 287 294 296 298 298 297 298 297 296 289 290 291 290 292 296 294 298 296 295 296 295 294 295 295 296 296 295 291 291 291 292 290 289 291 293 290 290 290 291 291 290 289 289 290 290 291 291 291 292 292 292 292 291 291 290 289 288 288 288 287 287 287 287 287 287 287 286
286 287 289 287 285 286 285 284 282 286 287 288 291 291 292 296 297 292 282 283 295 296 297 297 297 297 296 294 292 293 293 291 293 291 296 297 299 299 300 300 299 296 295 296 296 294 292 290 288 288 289 291 293 293 290 289 291 291 292 290 289 289 290 291 291 291 291 292 292 292 291 291 290 289 289 288 288 288 288 287 287 286 286 286 287 286
284 284 286 285 286 286 286 284 285 286 290 288 291 293 295 297 295 286 280 289 292 296 297 297 296 297 297 296 294 293 296 299 301 298 294 294 295 297 299 300 301 301 299 298 298 292 289 289 291 292 292 293 294 291 289 290 291 291 291 289 289 289 292 291 290 290 291 291 291 291 291 290 290 289 289 289 288 288 287 287 287 286 286 286 286 286
284 285 284 286 285 285 286 284 284 287 290 290 290 295 296 293 285 284 294 290 293 293 295 297 296 297 297 296 296 296 299 300 300 299 291 289 295 298 298 296 295 295 296 295 293 290 289 287 289 289 289 289 289 289 289 290 291 291 289 288 289 292 291 288 289 290 291 291 291 291 290 289 289 289 289 288 287 287 287 287 286 286 286 286 286 285
285 284 282 284 285 285 284 283 282 281 288 293 292 291 295 290 289 292 289 289 288 288 290 292 295 297 295 294 296 297 298 298 297 297 295 292 290 293 295 293 293 294 296 296 292 288 290 290 290 290 291 290 287 288 288 289 290 290 289 289 291 290 287 288 288 290 290 290 290 289 289 288 288 288 288 288 287 287 287 286 286 286 286 286 285 285
288 283 283 284 287 283 284 282 283 287 287 292 294 289 292 291 291 289 290 292 287 286 289 290 291 293 292 294 294 295 296 296 296 295 294 292 291 293 293 293 292 291 293 292 292 290 288 291 291 291 290 286 286 287 288 289 290 289 289 290 288 286 286 287 288 289 289 288 289 288 288 288 288 288 287 287 287 287 286 286 286 286 286 286 286 285
288 286 288 284 287 286 285 288 289 288 290 294 292 290 296 293 287 289 291 290 289 289 285 288 290 290 292 293 293 293 292 293 295 296 295 294 292 293 294 295 295 292 290 290 290 287 287 290 290 291 289 285 285 287 288 289 290 290 289 288 285 287 286 287 288 288 288 288 288 288 288 287 287 287 287 287 287 287 286 286 286 285 285 285 285 285
289 291 288 288 287 289 291 293 291 290 289 290 289 288 289 290 287 286 290 291 287 286 286 289 288 290 290 290 291 289 291 294 293 294 293 291 291 292 292 292 292 289 287 286 287 288 289 289 289 289 289 286 285 286 287 288 289 289 290 286 286 286 287 287 288 288 288 288 288 287 287 287 287 287 287 287 287 287 287 286 286 286 285 285 285 285
287 290 289 287 286 288 285 293 293 292 288 288 290 289 288 286 286 286 288 288 287 285 285 286 287 287 287 286 290 292 292 291 291 291 288 288 290 291 291 291 291 290 289 288 290 289 288 287 288 288 288 288 283 283 284 286 286 288 284 285 286 286 287 287 288 288 287 287 287 287 287 287 287 287 286 286 286 286 286 286 286 285 285 285 284 284
284 288 288 286 285 286 287 290 289 289 290 293 294 293 292 290 290 287 287 286 286 286 285 284 285 285 285 287 287 287 290 289 289 290 289 288 289 290 290 289 289 289 286 285 285 284 285 286 288 288 287 287 283 283 284 284 285 283 284 284 286 287 287 287 288 288 287 287 287 287 287 287 284 285 286 286 286 286 285 286 286 285 285 285 284 284
287 290 284 285 286 287 288 288 289 287 289 289 286 286 290 292 291 292 293 291 285 287 288 286 283 286 286 288 286 286 286 288 287 287 288 288 286 287 288 288 288 287 285 284 283 282 287 287 287 287 286 287 283 282 282 281 280 280 283 284 285 287 287 287 286 287 287 287 287 287 286 286 286 286 286 286 285 285 285 285 285 285 283 282 282 284
288 286 286 286 284 284 285 287 287 284 284 287 288 291 291 293 293 293 292 291 290 290 291 291 293 287 284 284 285 286 287 289 288 285 286 287 288 288 287 286 285 284 283 282 281 281 283 283 286 285 284 283 279 280 280 279 278 279 281 283 285 286 287 286 286 285 285 285 285 285 284 284 285 285 285 285 284 282 280 279 283 283 282 277 279 282
288 288 288 285 284 285 288 287 289 291 290 289 290 290 291 292 291 292 292 293 294 294 292 291 290 292 292 289 284 285 286 287 289 285 284 285 287 287 286 285 285 283 283 279 280 281 282 282 280 280 281 279 276 277 277 277 276 278 279 281 283 285 286 285 285 284 283 283 283 282 283 283 283 283 284 283 282 281 279 277 276 283 282 281 280 282
Wind_Speed
5 12 13 17 14 12 11 12 6 8 11 8 8 6 8 8 3 3 4 2 5 4 10 11 13 10 12 12 10 7 5 5 7 7 7 7 7 8 9 10 12 12 16 12 9 10 12 13 12 12 11 11 11 12 12 12 13 13 13 11 12 10 9 10 9 9 10 10 8 8 10 11 9 9 9 9 8 8 9 9 9 9 9 9 9 9
6 12 17 13 11 15 14 11 6 4 5 9 8 8 8 6 7 2 4 2 4 6 4 5 6 10 13 11 8 5 4 10 11 11 10 9 8 9 11 13 13 14 7 3 5 8 8 10 11 10 10 10 12 12 12 15 15 12 12 13 12 10 11 12 12 11 11 11 11 11 11 10 9 9 9 10 9 10 8 9 9 9 9 9 9 9
12 20 18 13 11 11 12 12 6 9 6 4 9 8 7 7 1 1 1 0 3 3 9 1 4 10 11 12 10 7 11 10 9 11 13 12 11 10 11 12 12 9 10 6 8 8 9 11 11 11 11 12 14 13 14 14 12 12 12 12 12 11 12 11 12 11 12 10 10 10 8 9 7 6 7 7 6 6 7 9 9 9 8 9 9 9
16 16 11 14 12 13 10 11 8 4 7 7 5 7 9 5 7 4 2 1 3 5 1 0 4 9 8 8 12 12 11 12 11 12 13 10 13 14 14 12 12 13 13 11 11 12 12 11 12 11 11 13 11 11 11 12 14 12 12 12 13 12 12 11 12 12 11 10 8 7 5 5 7 6 5 5 5 5 7 10 9 9 10 9 10 10
11 5 12 12 12 14 15 13 12 8 7 3 7 5 5 4 8 4 4 1 1 1 1 3 7 9 7 11 11 10 10 11 13 10 10 11 12 13 8 8 12 15 13 13 12 10 9 10 12 14 15 12 12 13 13 14 14 12 15 14 14 12 12 11 11 12 9 7 5 5 2 1 3 1 4 6 8 9 9 8 9 12 9 10 10 10
3 12 15 15 13 13 13 12 14 10 7 4 4 8 7 6 6 1 5 6 2 3 2 1 4 6 3 5 10 9 3 8 6 7 13 16 13 8 9 11 9 10 12 16 16 14 14 14 13 12 12 12 12 14 14 14 15 13 12 12 12 11 10 12 12 12 10 9 10 8 8 8 8 9 9 12 14 11 11 13 9 7 9 10 9 9
5 11 18 17 17 15 14 12 12 10 9 7 7 7 5 7 7 8 6 6 1 3 2 1 7 9 5 7 6 6 4 10 4 7 14 12 11 8 11 12 13 13 12 10 10 12 12 12 12 13 13 14 14 15 13 12 12 13 12 12 13 12 11 11 11 11 10 9 9 12 13 12 12 12 11 10 8 8 9 7 8 8 7 9 10 9
7 13 16 13 14 16 13 13 11 13 8 6 2 7 6 8 9 9 9 4 1 1 1 4 2 3 9 9 6 9 7 10 10 10 10 11 11 12 13 14 13 13 12 12 12 11 12 13 15 16 17 15 17 16 11 11 11 14 15 13 13 11 11 10 10 11 12 12 11 12 12 11 12 13 14 9 9 6 5 7 9 7 8 8 9 9
20 17 18 17 16 13 15 9 9 13 7 4 2 9 7 8 6 6 6 3 1 3 4 1 1 2 7 7 3 1 7 11 14 13 12 11 12 13 14 14 13 13 12 13 12 13 13 13 14 14 14 16 16 12 11 13 14 13 11 11 10 12 11 10 11 12 13 13 12 12 10 12 12 12 11 5 4 5 4 7 6 8 8 8 8 9
4 13 13 14 12 12 5 6 11 14 8 0 6 6 6 6 5 5 4 5 0 1 6 4 0 1 14 5 7 1 3 11 10 11 12 11 11 11 12 12 11 9 9 10 13 12 12 13 13 13 12 11 13 12 12 11 9 9 9 11 11 13 11 10 11 13 14 13 11 11 13 15 13 10 8 5 7 6 5 8 7 6 7 8 8 8
3 5 9 7 9 5 6 3 6 10 3 7 9 8 6 7 4 3 5 4 3 6 5 7 5 3 9 3 9 7 9 9 9 6 8 8 7 8 9 9 9 9 10 10 11 11 10 8 9 8 11 12 9 6 6 7 8 8 9 10 12 14 11 10 12 13 14 13 12 13 14 15 15 12 9 8 10 7 6 9 8 7 7 6 8 6
7 7 10 4 8 4 6 3 4 4 11 9 3 5 8 4 4 4 2 3 3 6 2 8 8 7 6 6 6 7 6 4 5 7 9 7 8 9 7 8 9 9 9 10 10 11 10 7 7 6 8 8 7 6 7 8 7 7 9 10 13 12 11 11 11 11 13 12 14 14 14 15 15 12 11 12 12 10 10 9 8 6 5 7 6 7
9 12 3 3 3 18 7 8 1 2 6 7 8 9 11 4 2 6 2 7 8 4 1 3 8 2 17 14 6 6 9 11 8 8 8 7 10 8 5 6 7 7 7 9 9 9 8 10 11 10 10 8 7 10 11 12 11 10 9 11 13 14 12 12 11 13 13 12 14 14 15 14 11 11 12 11 10 8 9 8 7 6 8 7 8 8
4 3 0 4 3 8 14 14 6 5 9 11 13 13 11 5 8 9 3 2 1 1 1 5 1 7 4 9 13 21 22 18 8 7 10 12 13 12 8 6 7 7 8 9 10 9 10 10 10 11 12 12 11 10 11 11 11 10 11 11 12 16 11 9 9 12 12 14 15 13 13 12 9 10 10 10 9 8 8 7 9 9 8 8 10 8
13 12 11 14 9 10 16 17 14 9 15 12 3 11 8 8 4 7 6 10 7 5 1 2 4 8 5 7 0 8 10 10 8 7 6 7 9 8 6 5 5 6 6 7 8 10 11 11 11 11 11 11 10 10 11 10 11 9 10 10 13 13 9 10 12 10 13 13 13 11 11 10 8 9 9 9 8 8 8 7 8 8 7 9 8 8
14 1 4 11 2 12 15 4 7 7 5 2 3 5 4 11 5 4 1 3 2 2 1 2 8 4 7 7 11 7 8 9 9 9 7 11 6 5 5 5 5 5 5 5 6 7 7 7 6 6 6 8 8 9 9 9 9 9 11 11 13 14 12 11 11 12 13 13 9 8 9 9 8 7 7 7 6 7 7 8 9 9 9 8 7 6
9 12 7 6 2 14 12 6 5 12 12 7 7 12 7 3 8 5 3 2 5 2 10 2 8 7 8 13 17 19 7 8 5 6 6 7 5 2 5 5 6 5 3 4 6 7 7 5 6 7 8 9 9 8 10 12 11 13 12 11 12 12 8 10 11 12 10 7 5 7 7 7 7 8 10 11 9 9 7 8 8 8 9 7 6 7
17 7 6 17 7 7 3 10 6 7 4 6 8 10 4 2 4 6 4 1 1 6 5 4 12 5 2 11 2 4 7 9 4 7 6 5 2 6 7 7 7 6 5 3 4 5 5 5 6 7 7 7 9 10 9 8 6 6 7 8 10 8 9 9 8 7 5 5 6 6 7 8 10 10 10 9 8 7 7 7 6 6 6 6 7 7
9 7 1 2 5 1 3 8 5 2 2 13 10 5 11 4 7 3 6 5 6 5 3 4 3 7 10 11 5 8 4 5 3 2 1 4 4 8 8 8 7 5 4 5 6 6 6 7 8 8 9 7 4 3 4 3 3 4 4 5 6 9 8 6 4 4 5 6 7 8 10 9 8 7 7 7 6 6 7 8 7 7 7 6 5 5
10 9 2 3 5 3 4 8 13 12 2 1 6 9 2 2 5 8 10 1 5 6 1 6 1 9 8 7 12 16 13 11 9 4 5 7 9 9 9 7 7 7 7 7 7 8 8 8 8 8 6 5 4 3 3 4 4 6 6 6 6 5 5 5 6 7 8 9 8 6 4 5 6 6 6 5 6 6 7 7 6 6 5 7 5 5
7 2 9 4 0 4 9 8 16 16 14 7 9 8 3 1 2 4 1 4 5 5 6 1 4 7 9 9 13 18 16 15 8 9 6 8 9 10 8 7 7 7 7 8 8 8 8 8 7 4 1 0 1 1 2 4 5 5 4 5 4 6 5 6 7 6 7 4 5 5 6 6 5 4 3 4 4 5 5 4 4 5 5 3 5 5
6 6 13 7 4 11 12 7 6 12 14 12 14 14 15 10 8 9 9 2 3 3 4 6 12 3 9 4 12 14 12 6 5 6 8 8 9 9 8 7 7 6 7 7 6 6 6 5 4 0 1 1 2 2 3 2 1 2 3 2 2 2 4 5 5 5 4 4 4 5 4 4 3 4 4 5 3 4 3 2 3 2 3 4 3 3
8 4 12 13 12 13 7 1 2 5 4 4 6 7 6 3 4 6 11 10 5 6 5 5 3 10 9 4 7 9 7 6 5 6 8 8 8 8 7 5 5 6 6 7 6 5 5 3 2 2 3 4 5 4 3 3 3 4 3 2 3 4 5 4 4 3 4 4 4 4 4 4 4 4 4 5 4 4 3 2 2 2 2 2 2 2
9 7 12 4 5 4 3 1 5 4 7 2 3 3 7 12 15 11 4 3 8 2 3 4 5 5 2 2 4 4 6 6 5 7 10 9 6 5 5 5 6 6 7 5 4 4 4 2 1 2 4 4 3 3 4 4 4 3 3 4 4 5 5 3 2 3 4 4 4 4 5 5 3 4 3 4 3 3 2 2 1 1 2 2 1 1
11 6 16 10 6 2 4 4 2 3 3 6 8 9 12 12 6 2 4 1 4 12 11 9 13 4 5 2 3 1 2 1 4 5 5 7 5 4 6 6 5 5 4 5 5 4 2 2 4 4 4 4 4 4 4 4 4 4 5 4 5 5 4 3 3 4 4 5 5 3 4 4 3 3 3 3 3 3 3 3 2 2 1 1 1 1
5 10 17 17 18 16 17 18 18 14 17 11 10 15 13 17 16 9 10 5 9 5 11 6 11 3 7 4 1 2 2 2 2 0 1 3 4 5 4 5 4 4 6 5 4 3 5 4 3 3 5 4 5 6 5 5 5 5 4 6 5 5 4 4 3 4 5 4 6 4 4 3 3 3 3 3 3 4 3 2 2 2 1 0 0 0
6 8 11 16 22 22 22 14 9 12 9 12 9 13 17 15 14 9 3 3 15 6 13 15 4 1 2 5 4 6 5 6 4 1 2 2 2 3 2 3 5 5 5 5 5 4 3 5 7 5 5 7 6 6 6 6 6 5 5 5 5 5 5 5 5 4 5 4 5 4 4 4 4 4 4 4 3 2 1 1 0 0 0 1 1 1
4 8 11 12 16 13 7 7 12 16 16 17 19 18 13 11 8 12 14 19 5 11 6 7 6 7 9 5 7 9 7 2 3 3 3 3 4 5 6 4 4 4 5 4 4 6 8 8 5 6 8 7 8 6 5 5 6 6 7 8 6 6 5 6 6 5 5 5 5 5 5 5 4 4 3 2 1 1 1 0 0 1 1 1 0 0
10 13 13 11 14 6 9 10 14 15 15 17 20 18 20 17 16 18 21 21 6 10 18 17 9 12 12 9 11 11 5 5 7 7 7 5 1 3 3 5 6 6 6 5 8 7 8 9 7 7 7 8 6 7 7 6 6 5 5 5 5 6 8 6 7 6 6 5 6 6 5 4 3 2 1 0 1 1 3 2 1 2 2 2 2 1
8 7 10 12 12 7 10 13 12 15 13 11 14 17 18 21 23 24 25 24 18 13 17 17 6 17 16 13 15 7 4 6 5 2 1 1 4 6 6 6 8 8 8 9 9 9 8 8 6 7 7 7 8 8 7 7 8 9 9 9 7 8 7 7 8 8 7 8 7 5 4 4 4 3 4 4 4 4 3 3 3 2 2 1 1 1
11 5 16 10 10 8 8 9 14 16 15 13 15 16 16 16 18 19 18 15 10 14 18 19 16 19 11 6 9 6 10 10 4 4 4 5 7 6 7 7 7 8 9 9 7 8 9 6 6 6 7 9 9 10 10 10 9 7 7 7 8 9 8 7 8 8 8 9 6 6 5 5 5 4 5 5 4 4 4 3 3 3 3 2 2 1
8 3 8 8 10 7 5 11 14 15 15 16 16 16 16 17 18 17 18 20 18 22 25 23 19 17 12 12 8 7 11 15 18 14 10 11 10 8 7 8 8 9 10 10 10 9 8 7 8 9 11 11 11 11 10 10 9 7 11 9 10 9 7 8 8 9 9 7 6 7 7 6 6 5 5 4 4 5 4 4 4 4 3 3 3 3
9 8 10 10 11 11 11 12 14 11 7 9 17 20 23 23 23 23 24 22 18 16 15 16 21 24 8 8 10 11 13 13 14 16 18 18 15 9 9 12 12 10 10 11 11 11 10 10 11 12 12 10 12 12 13 11 9 11 12 11 10 7 9 10 9 9 8 7 8 8 7 6 7 6 5 5 5 4 5 4 4 4 4 5 3 3
9 11 9 10 12 9 9 7 8 10 16 19 18 25 27 27 26 22 19 19 17 17 17 19 20 5 8 13 16 10 11 15 16 15 13 15 15 11 12 12 13 15 12 9 9 9 10 7 8 9 12 14 14 14 11 11 14 14 9 7 6 10 10 10 9 8 8 7 8 7 7 7 7 6 6 5 5 5 5 5 6 4 3 3 4 4
13 13 10 8 8 6 10 12 10 18 16 14 13 11 16 16 14 21 21 21 20 21 21 22 20 18 7 5 8 10 11 11 9 13 15 13 10 11 15 15 15 15 13 11 9 10 11 11 11 12 11 11 10 8 7 8 9 3 5 7 9 7 9 9 8 8 8 8 8 7 8 8 7 7 6 6 6 6 6 6 5 4 4 5 4 4
13 14 7 5 4 5 10 13 11 15 7 3 7 13 12 12 17 16 20 21 23 25 24 25 24 17 9 11 7 5 4 7 7 13 17 14 12 15 12 11 12 13 13 13 12 14 14 12 15 16 15 12 8 7 9 12 9 7 6 6 7 7 7 8 8 8 7 8 9 9 9 9 8 7 7 7 7 7 6 5 6 6 4 3 2 2
16 11 10 9 5 10 8 13 12 3 2 1 5 8 15 20 22 23 20 25 21 10 10 17 22 21 19 21 7 3 1 3 8 14 12 7 6 8 11 12 14 15 14 14 13 17 16 16 16 15 12 8 9 9 11 9 9 9 8 8 8 8 8 8 9 10 10 10 9 9 9 9 9 8 8 8 8 7 7 6 6 4 4 4 4 4
11 17 8 13 7 7 12 9 8 6 12 10 17 14 21 13 5 6 6 15 9 17 20 21 25 25 22 15 4 5 3 4 14 23 10 12 12 13 10 12 14 13 13 15 16 14 12 9 9 7 8 8 7 10 9 8 10 10 9 8 7 9 8 9 11 10 10 11 10 10 10 9 10 10 10 9 9 9 7 6 5 6 5 6 6 5
4 2 8 15 7 9 9 13 11 13 15 14 12 9 5 11 16 12 6 19 12 17 20 21 25 24 17 10 5 6 4 11 21 19 7 16 13 12 17 20 19 16 16 18 19 16 12 12 13 12 8 6 9 11 7 7 9 10 11 9 9 9 9 11 11 11 13 12 10 10 10 10 10 10 10 10 9 8 8 8 7 5 5 4 5 5
2 3 5 9 8 9 11 10 12 6 11 5 11 11 12 16 17 14 9 14 22 17 16 19 25 24 11 7 11 12 14 17 24 4 13 16 19 20 21 21 18 16 16 18 17 13 10 7 5 5 8 11 14 13 10 9 10 11 12 10 8 9 11 14 14 11 8 8 10 10 10 9 10 9 10 10 8 7 7 6 6 6 7 5 4 4
2 2 4 13 9 10 14 6 2 6 3 2 12 16 17 17 15 13 16 22 2 18 18 17 18 15 11 15 13 14 18 21 23 13 10 7 8 12 16 17 17 18 18 18 19 11 6 7 11 14 16 16 15 8 9 9 10 11 10 9 10 12 16 12 7 9 10 9 9 10 10 9 10 11 9 8 8 7 6 6 7 6 6 6 4 4
2 1 2 2 9 11 9 10 9 5 5 7 6 18 16 14 12 18 16 2 10 7 13 16 18 18 15 15 13 16 18 20 24 15 2 5 12 15 15 12 9 9 10 10 7 4 6 5 7 8 7 6 5 6 8 10 11 12 9 9 13 18 11 8 9 9 10 11 11 10 10 9 8 8 7 7 7 7 6 5 5 6 6 4 5 6
9 9 7 9 2 3 3 6 3 11 4 15 15 9 11 13 10 6 3 1 3 6 7 8 13 14 10 12 13 16 18 18 15 13 10 9 8 13 13 8 8 12 13 13 9 6 7 8 10 11 12 8 6 7 9 10 12 10 11 13 19 10 8 9 10 11 11 11 11 10 9 9 9 8 7 7 7 8 7 6 6 5 5 6 5 6
2 4 2 1 3 7 8 10 7 3 3 7 20 13 12 3 1 3 6 6 1 3 7 6 7 8 7 10 12 14 16 16 15 12 11 9 10 14 13 11 9 8 9 8 8 7 6 8 8 9 8 5 6 8 10 13 13 12 13 18 6 8 8 9 9 10 10 10 10 9 9 8 8 7 6 8 7 7 7 7 6 5 5 5 5 5
3 3 1 4 3 4 4 1 1 1 3 6 2 3 8 5 1 2 2 4 4 5 5 6 7 9 10 11 12 12 9 11 16 18 15 13 12 14 15 17 15 10 8 8 9 5 6 10 11 11 9 7 8 8 9 10 14 14 16 10 9 10 12 11 11 11 11 10 10 10 9 8 8 8 7 8 8 8 8 8 7 7 5 6 5 6
3 2 1 3 2 3 7 8 5 3 2 6 2 1 2 1 2 2 2 1 4 3 6 5 6 7 8 8 8 7 10 12 13 15 11 7 8 11 9 8 8 6 6 6 7 8 10 9 8 8 11 9 8 9 9 10 9 13 15 7 9 10 11 12 13 12 11 10 10 10 10 10 8 8 8 8 7 7 6 8 8 7 6 6 6 6
3 3 1 1 3 4 6 7 11 7 2 6 6 6 3 3 1 0 0 1 4 4 5 5 5 3 1 1 8 9 10 10 8 8 4 4 8 11 10 10 10 8 9 10 13 8 6 7 8 9 10 11 7 7 7 9 9 9 4 10 9 10 11 12 12 11 10 11 10 9 10 11 9 8 8 8 6 6 7 7 7 7 7 6 6 6
2 2 2 3 4 5 8 1 1 1 4 7 7 6 6 5 6 3 4 4 5 4 1 2 0 4 3 3 7 6 10 6 4 9 7 6 8 8 9 9 10 8 6 6 5 5 6 6 9 10 9 10 8 8 8 8 8 5 6 7 9 10 11 11 12 12 11 11 10 10 10 10 10 10 8 8 8 8 8 7 7 7 7 8 7 7
3 5 3 4 5 7 7 6 7 4 6 6 4 4 7 7 5 9 9 8 5 6 8 6 4 6 4 7 3 4 5 11 7 7 7 6 5 7 9 10 9 8 6 6 6 6 10 10 10 11 10 11 7 7 7 7 5 5 8 9 9 11 12 11 10 9 10 10 9 9 8 8 9 9 8 8 7 5 4 7 6 6 4 2 2 4
3 5 3 2 4 7 9 6 3 0 6 5 5 8 8 10 9 10 9 8 9 8 9 10 14 5 4 5 4 5 7 10 8 4 6 7 8 8 6 6 6 6 6 5 3 5 6 7 8 8 9 6 5 7 8 7 6 6 7 9 10 11 13 12 10 10 10 9 9 8 9 8 8 7 8 7 7 7 4 5 5 5 6 3 2 4
6 6 6 6 6 10 4 4 6 8 7 5 7 7 9 8 6 9 11 11 12 11 9 8 9 14 12 8 7 7 8 8 11 3 4 6 9 8 6 5 6 6 7 5 5 6 8 7 5 5 6 6 4 5 5 5 5 6 7 8 9 11 12 13 11 9 9 9 9 9 9 9 8 8 7 7 7 6 7 6 4 4 4 6 5 5
Wind_Direction
153 166 187 196 190 178 179 191 181 179 177 193 177 161 190 188 262 274 232 237 184 139 216 218 233 243 251 248 258 256 283 280 266 254 241 233 227 224 224 222 220 218 223 222 205 203 205 202 200 201 197 201 201 201 198 194 199 197 194 188 200 194 186 185 187 188 189 193 201 210 211 214 209 211 212 217 216 215 218 215 216 216 214 211 209 211
170 190 208 192 172 175 181 189 188 150 190 190 168 173 206 190 211 233 213 222 212 172 262 256 267 260 256 266 264 273 288 254 245 247 245 234 223 221 220 225 222 224 234 173 192 212 208 206 204 198 199 198 198 207 199 202 201 198 194 196 198 188 192 195 192 190 194 198 198 196 206 206 206 206 209 218 215 217 218 217 216 216 216 215 213 213
194 209 195 174 165 170 184 188 144 151 168 185 178 183 186 228 228 270 359 137 196 162 259 329 220 256 261 262 264 243 241 242 231 227 235 228 230 224 223 225 226 230 232 203 216 205 204 206 202 197 203 204 204 199 202 206 198 198 199 202 195 194 193 198 196 192 200 201 203 200 204 201 213 221 221 228 225 219 221 222 220 217 215 214 215 213
203 221 171 163 161 168 184 185 168 139 150 170 179 164 198 202 154 252 289 108 171 158 236 266 302 277 269 256 251 245 231 241 235 233 236 224 227 225 220 213 216 223 222 216 210 210 208 201 201 201 204 207 202 203 205 204 203 200 203 202 198 197 197 197 200 201 204 201 203 208 196 200 201 199 208 221 234 223 221 227 219 221 215 210 214 212
206 152 149 153 165 171 177 184 177 168 182 209 177 177 196 164 208 145 200 124 348 323 52 334 306 286 243 257 260 242 232 241 242 237 247 245 234 233 233 222 214 214 214 216 216 218 207 204 204 202 206 200 201 204 205 203 203 203 203 202 198 197 198 200 198 200 196 187 189 191 174 148 206 230 190 205 229 223 220 223 218 222 211 212 214 211
136 146 143 164 169 180 175 186 192 164 182 206 241 190 188 184 159 77 119 107 37 291 325 110 330 287 285 269 258 278 330 247 240 228 242 238 237 233 235 231 230 232 215 209 210 208 204 203 206 207 206 199 206 208 210 204 205 203 204 199 199 201 199 201 199 195 188 191 191 183 195 208 211 219 209 213 217 213 215 219 221 219 210 214 216 213
171 166 162 168 170 179 186 189 192 168 179 171 232 189 167 154 138 138 143 94 132 177 290 35 189 270 326 292 273 285 267 262 270 226 242 240 239 227 226 228 223 218 228 236 225 210 203 207 202 205 203 205 206 213 208 203 205 205 205 201 198 200 202 201 197 186 187 193 197 199 204 209 212 221 228 225 225 220 224 223 221 221 214 215 216 217
151 164 168 173 170 177 186 196 192 177 164 204 245 155 123 111 132 162 151 141 184 230 318 43 129 253 294 266 242 264 279 276 275 258 247 245 238 228 227 225 223 221 216 215 217 214 211 204 198 202 205 203 210 211 198 201 203 205 206 200 201 202 202 199 190 187 190 196 199 204 210 213 219 220 230 217 226 224 216 216 224 220 222 217 219 220
167 170 171 172 178 180 195 190 154 173 169 223 166 152 145 145 157 143 128 108 149 109 263 318 343 333 250 272 295 304 279 272 261 258 254 239 234 235 232 228 224 220 213 209 216 215 210 209 210 209 206 209 211 206 197 203 204 205 204 202 202 205 202 197 190 190 196 201 200 204 207 217 225 227 236 222 221 220 210 226 218 220 223 222 222 222
170 173 174 170 173 189 156 128 155 165 168 183 96 79 86 80 72 111 105 100 16 113 250 204 186 203 278 224 262 274 237 253 249 249 251 246 236 235 238 235 225 221 219 216 220 220 214 212 213 212 213 212 213 207 204 207 201 202 200 203 201 209 202 195 192 195 199 201 200 206 210 218 225 222 232 208 225 221 208 228 222 220 221 222 227 226
125 120 134 153 197 174 137 142 154 161 145 136 112 88 62 49 66 44 64 96 73 252 235 188 190 122 299 227 207 188 222 230 244 269 270 269 265 248 236 232 226 216 213 215 220 222 221 218 219 212 212 215 214 211 207 210 204 202 198 202 206 213 203 193 196 194 201 199 202 212 213 218 224 218 217 221 231 220 216 228 227 220 224 222 228 228
112 130 164 229 145 93 128 92 349 147 142 134 105 128 92 25 14 29 353 38 198 245 183 171 174 147 214 289 274 244 274 246 206 236 255 266 259 257 246 233 229 216 213 217 217 224 220 219 223 211 225 223 215 196 199 206 206 204 205 202 210 214 206 202 199 195 203 200 207 214 215 219 221 213 213 219 226 215 223 224 228 220 222 226 225 225
149 178 173 99 169 152 164 140 299 130 166 141 134 138 159 188 109 215 120 209 214 203 202 163 134 69 232 238 287 276 250 262 228 226 246 265 281 271 259 259 241 225 216 214 218 220 218 212 209 209 217 213 207 202 203 204 200 205 207 206 209 217 208 206 199 202 202 203 211 212 215 222 218 215 218 221 225 215 219 218 222 213 223 222 226 221
184 180 81 145 143 184 159 178 159 173 207 168 171 167 164 155 191 209 171 1 4 309 318 142 43 259 289 298 232 247 255 249 253 233 232 241 251 263 267 265 251 232 214 214 212 213 213 210 211 209 210 208 207 206 205 205 202 202 203 206 211 223 206 206 202 206 205 211 214 213 216 220 212 218 217 221 221 213 213 210 218 217 219 222 225 222
151 186 219 164 199 177 187 193 182 174 173 186 144 168 182 161 163 193 169 203 207 181 201 275 123 231 122 244 236 246 255 273 271 254 253 258 256 255 263 279 269 246 238 223 216 214 213 213 207 206 208 210 209 207 207 206 206 200 204 201 210 224 209 203 208 207 211 217 217 215 217 219 212 219 215 222 218 213 211 212 217 222 219 223 225 221
191 209 186 172 337 170 186 181 115 102 144 233 178 67 135 209 122 162 197 126 131 118 320 218 210 188 199 280 292 236 246 259 257 269 276 270 258 244 257 257 252 239 228 221 226 234 235 227 219 218 218 219 216 211 208 207 201 200 206 203 210 214 207 203 206 211 213 219 214 213 214 216 212 215 215 224 218 220 212 215 214 223 221 223 226 223
165 212 145 144 318 167 184 145 168 149 180 185 146 200 197 95 99 102 56 48 83 53 243 130 296 285 302 288 269 279 266 248 247 249 248 252 241 202 225 244 252 256 258 229 222 225 231 227 222 213 210 213 215 211 208 205 198 199 200 202 210 216 205 204 208 211 213 213 201 213 210 208 207 209 215 219 218 216 213 217 218 222 224 223 220 225
169 144 182 167 177 203 155 159 164 179 136 90 190 203 107 89 105 132 174 5 159 186 257 180 227 278 49 275 334 341 284 277 208 228 232 249 183 203 225 225 229 234 237 260 268 261 249 238 228 220 220 215 209 210 211 212 207 210 207 204 208 207 204 211 205 208 196 191 202 208 210 212 210 212 217 216 218 209 212 220 222 224 230 222 219 217
117 91 279 338 137 351 35 117 146 278 266 181 194 155 151 211 215 226 106 196 189 222 256 277 246 249 197 242 308 276 264 282 276 287 269 253 233 227 231 235 243 268 290 269 252 247 245 233 231 223 222 221 219 226 221 201 177 181 194 198 199 209 211 196 179 175 188 194 205 206 210 209 210 212 212 211 210 202 209 216 215 218 222 225 217 214
145 127 106 340 130 178 139 164 193 185 318 46 110 180 208 103 236 146 201 165 117 236 106 293 49 244 204 214 233 252 255 250 252 263 249 233 225 223 225 218 221 228 232 235 236 236 233 233 230 227 229 229 221 201 189 180 175 191 194 187 202 204 186 179 187 189 201 209 206 211 203 211 207 208 207 202 195 204 208 214 215 219 222 220 210 212
152 117 149 156 91 119 183 200 199 184 170 162 170 186 202 83 259 115 12 147 177 175 200 192 277 262 253 210 217 236 239 246 240 248 236 237 239 234 227 210 213 217 219 224 223 227 230 233 238 244 284 154 99 117 143 166 182 193 183 196 196 192 190 194 209 200 220 193 204 193 202 205 196 183 159 166 181 192 203 208 202 209 216 200 216 204
100 173 156 137 146 194 200 203 226 192 190 189 183 187 184 145 126 162 230 68 124 132 210 146 248 274 263 201 211 231 241 247 228 210 234 240 238 234 234 223 210 217 232 225 227 223 232 242 266 340 64 70 131 162 178 185 162 191 201 207 168 158 185 193 209 201 206 197 187 188 174 157 141 143 141 138 137 139 145 148 168 174 157 185 220 192
139 121 130 170 177 189 182 270 271 181 135 156 165 213 180 159 153 176 203 205 170 223 116 160 286 267 241 223 211 229 248 240 232 205 228 242 237 231 236 231 228 224 229 228 230 232 237 241 228 204 185 189 193 204 200 209 198 212 215 197 196 181 216 195 198 189 177 166 154 159 158 141 144 137 139 134 140 139 152 157 170 177 168 202 238 239
88 117 124 90 63 37 28 31 47 100 113 153 217 154 156 198 194 199 212 170 179 175 217 241 256 252 284 251 231 247 252 254 244 203 216 235 245 245 241 247 231 235 243 251 260 266 256 249 241 175 203 212 221 211 219 218 219 219 217 213 205 206 213 202 165 153 144 148 151 154 138 142 141 125 140 148 158 142 141 132 115 171 173 191 206 203
149 218 141 141 123 69 8 1 16 331 205 204 196 198 196 201 186 165 103 39 164 213 194 153 237 246 268 336 303 318 315 247 226 229 209 235 245 232 226 232 234 235 251 250 242 243 266 243 216 219 218 222 222 229 227 224 220 213 218 210 211 216 206 193 174 156 163 153 151 152 151 141 132 132 140 146 165 159 159 133 118 97 122 137 151 189
70 148 153 162 164 166 184 192 190 183 198 198 201 194 201 191 184 167 212 176 211 228 168 185 235 253 286 309 301 254 314 265 267 303 221 227 229 189 215 228 221 218 221 228 253 263 238 234 234 227 225 226 222 217 217 219 220 218 217 217 205 195 189 212 169 158 141 157 158 167 169 171 141 141 146 156 161 160 148 113 89 88 63 94 126 48
132 161 191 175 179 189 192 196 191 176 164 195 183 193 202 204 196 201 216 201 221 202 189 218 196 21 245 237 285 284 260 213 197 230 212 224 254 265 266 234 214 215 227 230 236 255 292 268 234 223 225 220 221 218 217 212 214 216 214 222 216 201 190 189 170 159 167 166 171 163 180 175 164 154 154 152 151 144 114 64 77 63 44 63 90 93
115 166 195 178 200 199 161 106 127 165 185 193 190 200 197 192 189 195 202 221 162 69 285 245 203 209 232 255 245 243 248 280 295 284 286 286 267 224 225 240 270 278 270 267 262 244 235 241 238 229 226 225 228 224 227 217 214 209 204 212 206 199 195 188 175 171 170 158 174 189 184 177 161 148 137 128 99 67 50 289 259 161 140 140 130 84
154 179 183 174 196 162 140 157 169 182 190 189 191 184 192 187 195 203 219 228 152 189 231 228 186 222 223 225 237 229 208 202 218 225 218 219 249 273 276 250 246 246 256 247 240 233 233 233 227 227 227 227 223 225 222 219 222 222 225 220 204 195 201 185 178 185 185 187 192 193 176 162 146 119 134 148 150 172 196 171 147 144 153 160 157 163
140 205 168 175 175 160 169 170 170 181 191 195 200 199 194 191 199 204 216 220 207 220 236 248 197 229 226 206 229 241 217 202 231 211 70 158 222 223 220 233 232 236 236 236 234 235 232 231 219 225 224 225 220 221 215 215 216 213 209 210 200 202 202 178 188 187 194 198 195 174 164 157 149 174 184 179 178 178 167 153 150 126 109 95 102 109
171 188 158 165 171 184 193 161 168 183 187 195 200 200 196 199 208 216 226 232 225 248 254 252 241 248 242 168 216 230 269 264 201 211 229 241 243 237 233 238 241 235 233 238 241 239 238 225 220 229 225 224 218 215 210 212 212 207 213 209 201 204 196 183 185 194 195 199 181 168 164 166 174 170 169 174 166 160 157 157 149 136 130 121 107 106
176 161 145 153 169 196 216 177 176 181 189 195 198 196 193 193 206 211 217 216 202 215 227 239 248 252 241 160 199 195 210 232 255 259 241 236 237 242 244 239 237 245 245 236 231 234 237 218 217 219 220 218 217 211 208 208 204 193 213 203 204 198 179 187 190 195 196 188 172 173 174 168 170 168 168 160 171 167 160 148 148 153 152 145 140 143
170 140 156 161 180 198 197 178 175 160 159 207 214 199 194 199 204 207 216 215 211 211 225 230 235 234 221 145 206 206 197 215 220 232 252 265 264 248 251 266 270 263 249 242 233 229 226 213 211 214 217 216 213 208 212 198 183 205 208 201 202 160 180 191 191 191 191 182 176 179 169 165 168 168 165 178 168 161 153 157 159 159 158 172 171 142
129 144 161 163 190 175 153 144 142 158 199 211 203 201 192 197 200 207 215 217 210 205 223 226 239 233 127 193 218 207 207 214 213 228 225 231 243 255 257 256 258 258 255 248 238 234 233 215 217 221 219 215 212 207 200 182 193 208 200 184 155 176 185 186 190 188 189 179 182 175 165 167 168 167 174 167 161 159 162 171 183 179 173 147 147 156
158 157 175 171 171 152 139 134 173 207 217 214 217 187 200 205 199 211 221 218 214 216 227 240 243 235 185 218 205 216 214 221 223 228 233 230 215 217 227 231 237 245 245 241 238 236 233 214 211 220 225 231 223 210 171 196 214 165 144 166 175 182 179 188 181 186 184 184 181 171 169 170 167 170 167 167 164 168 176 183 171 164 173 168 170 170
162 167 147 175 116 101 159 169 193 221 211 239 134 163 174 182 209 210 236 231 221 214 214 230 239 244 225 232 212 230 215 236 251 240 232 222 202 213 221 227 237 240 243 237 219 228 226 213 210 211 216 218 205 197 191 198 182 171 181 161 176 176 182 178 182 187 181 188 185 178 176 170 168 167 165 168 169 174 182 179 177 172 173 165 177 186
174 161 166 171 177 163 175 177 208 54 42 135 147 170 157 194 199 195 210 232 223 217 217 237 244 241 237 237 204 87 314 346 282 264 233 212 227 236 219 223 227 233 235 245 226 228 223 215 210 212 207 202 195 194 200 192 171 178 159 171 180 174 175 175 189 193 189 192 186 179 175 171 166 168 169 171 173 182 182 178 176 179 164 163 175 174
193 176 173 161 204 168 164 184 209 231 227 208 214 194 194 196 159 165 213 266 151 200 207 220 233 234 232 237 129 153 68 333 275 262 219 163 207 218 229 236 238 232 234 239 245 235 234 226 219 222 205 198 195 209 205 181 174 168 172 179 170 169 179 183 202 196 189 192 185 178 173 171 166 171 174 174 181 183 184 180 173 175 174 171 173 188
357 171 184 186 151 168 183 184 194 206 230 217 199 161 132 111 118 110 161 251 223 190 205 213 232 236 227 219 159 138 178 240 250 258 120 173 196 204 216 227 226 226 228 231 238 238 223 217 206 202 191 185 206 221 202 177 167 166 185 184 179 177 180 201 205 192 193 189 177 173 173 171 170 175 176 179 183 180 178 179 177 170 170 178 178 178
16 172 149 196 185 180 170 187 203 204 232 226 139 154 142 124 115 118 199 252 240 176 200 207 225 233 216 188 164 186 205 233 248 221 167 183 193 205 213 223 225 225 232 237 244 237 229 213 176 166 182 198 215 212 182 170 170 184 188 191 169 179 200 210 207 191 175 167 169 171 172 174 172 176 177 180 179 176 177 168 160 168 172 178 173 160
149 8 219 194 171 178 182 190 18 281 269 216 151 141 148 129 130 174 208 235 145 149 203 197 222 227 202 209 183 208 219 226 246 228 194 195 200 221 227 224 222 219 223 232 240 234 211 197 190 203 201 204 210 184 165 166 174 190 196 175 175 200 214 206 167 161 168 163 167 173 176 175 177 177 180 179 174 169 162 165 165 163 168 166 158 141
44 67 48 126 190 181 181 185 217 262 236 152 170 146 143 133 190 201 222 108 134 184 190 188 205 218 208 208 199 216 230 234 241 248 184 212 208 226 230 229 233 245 244 245 254 191 206 195 215 231 249 250 209 172 170 172 182 197 178 178 198 215 201 144 160 160 162 170 174 175 175 175 171 171 172 164 157 160 162 164 157 160 160 159 152 147
178 161 203 178 146 47 122 194 130 231 231 152 153 160 175 175 216 196 85 186 158 177 166 199 206 223 196 213 214 220 234 247 251 255 236 227 225 245 247 241 228 226 234 239 238 223 186 203 212 216 221 214 179 168 178 177 190 191 188 191 214 198 140 153 157 167 167 168 170 174 173 170 168 168 164 158 159 156 156 154 155 155 154 155 148 142
233 108 139 213 218 156 165 186 201 226 38 158 146 176 202 178 235 180 135 203 308 126 166 184 219 222 201 203 213 226 233 242 256 258 251 237 227 244 248 246 242 238 243 248 240 225 194 216 219 225 230 199 184 183 182 181 194 196 192 213 189 128 143 148 165 160 164 168 168 165 165 163 161 157 152 155 157 153 152 156 155 152 158 156 149 145
216 153 199 170 197 175 203 184 131 244 233 164 68 21 165 204 130 5 158 165 165 227 180 168 207 218 213 210 216 219 232 235 238 242 240 235 226 234 238 239 238 235 231 236 243 218 191 211 214 220 224 211 198 197 192 195 194 198 206 208 140 162 158 162 160 163 166 168 164 163 157 152 157 157 155 157 156 157 159 155 159 157 164 156 155 157
357 131 152 90 294 273 268 245 264 317 273 276 291 28 23 325 323 48 42 314 256 208 178 190 216 217 221 208 205 232 219 234 231 246 249 248 245 250 256 269 269 239 211 216 238 226 216 215 216 207 217 218 203 197 198 204 202 200 214 159 165 162 164 157 160 163 167 162 161 158 154 151 151 153 154 155 159 161 164 158 162 161 162 163 163 165
238 175 128 135 258 152 242 255 237 228 244 290 296 296 303 279 245 228 53 213 262 240 217 234 247 273 325 229 214 224 234 233 254 270 288 258 255 254 251 250 255 239 218 219 225 220 228 210 214 219 218 223 208 201 202 204 211 213 154 166 163 159 157 161 159 160 158 161 156 154 157 158 161 155 154 155 155 159 162 161 162 164 164 167 166 167
315 217 156 202 188 194 247 348 303 136 187 239 252 273 286 304 313 273 218 247 280 307 252 246 239 281 201 219 218 238 263 271 236 249 253 243 245 259 257 250 253 262 249 246 277 237 240 227 224 224 216 221 202 196 198 202 205 184 160 156 157 155 154 158 162 161 165 161 163 162 164 161 155 157 160 164 165 166 166 169 167 168 171 174 174 166
200 111 217 187 206 248 284 284 265 343 330 290 299 293 267 271 265 286 282 274 271 300 307 297 212 226 193 230 191 193 257 273 240 243 250 261 259 253 247 245 244 243 231 211 220 189 208 210 216 218 208 216 187 185 188 194 181 166 163 161 157 157 155 157 156 156 158 158 156 161 159 159 162 167 165 163 163 161 157 161 164 152 140 124 135 153
92 179 222 106 234 257 233 246 117 252 271 276 212 218 239 244 242 258 278 289 280 274 271 283 293 265 211 242 215 198 227 269 275 200 239 244 252 256 257 247 240 226 223 220 192 207 220 222 217 214 214 208 175 183 181 178 172 168 164 159 162 160 157 154 151 154 162 163 163 157 156 156 162 163 164 163 160 149 105 48 93 124 135 190 252 148
207 207 172 191 208 248 221 157 176 198 229 207 200 226 222 230 227 242 250 257 271 273 267 268 274 291 289 261 196 207 230 239 272 256 236 256 254 251 250 246 242 234 222 189 179 214 215 224 217 209 211 195 171 176 173 168 171 167 168 168 166 164 155 152 153 158 161 163 169 165 158 158 160 166 165 164 155 149 138 115 56 60 133 147 154 154